Home > Weather > Samford > Past weeks

Flag for Australia Past Weather in Samford, Queensland, Australia — Yesterday and Last 2 Weeks

Now
52 °F

Sunny.


Feels Like: 48 °F
Forecast: 39 / 67 °F
Wind: 10 mph from Southwest

Location: Brisbane Airport M. O

Current Time: Jun 29, 2016 at 8:43:08 AM

Latest Report: Jun 29, 2016 at 8:00 AM


Visibility: 10 mi

Pressure: 30.27 "Hg

Humidity: 67%

Dew Point: 41 °F

Location of SamfordLocation

Past Weather in Samford — Graph

°F

Samford Temperature Yesterday

Maximum temperature yesterday: 64 °F (at 2:00 PM)
Minimum temperature yesterday: 48 °F (at 1:00 AM)
Average temperature yesterday: 55 °F

High & Low Weather Summary for the Past Weeks

 TemperatureHumidityPressure
High73 °F (Jun 24, 11:30 AM)100% (Jun 15, 5:00 AM)30.48 "Hg (Jun 15, 5:00 AM)
Low41 °F (Jun 26, 4:00 AM)24% (Jun 25, 12:30 PM)29.71 "Hg (Jun 20, 1:00 AM)
Average61 °F69%30.05 "Hg
* Reported Jun 14 7:00 AM — Jun 29 7:00 AM, Samford, Weather by CustomWeather, © 2016

Note: Actual official high and low records may vary slightly from our data, if they occured in-between our weather recording intervals... More about our weather records

Advertising

Samford Weather History for the Previous 24 Hours

Scroll right to see more
 ConditionsComfort  
Time TempWeatherWind HumidityBarometerVisibility
7:00 AM
Wed, Jun 29
48 °FSunny.9 mph76%30.27 "Hg10 mi
6:30 AM48 °FSunny.9 mph76%30.27 "Hg10 mi
6:00 AM46 °FSunny.9 mph82%30.27 "Hg10 mi
5:30 AM46 °FClear.10 mph76%30.24 "Hg10 mi
5:00 AM48 °FClear.10 mph76%30.24 "Hg10 mi
4:00 AM46 °FClear.9 mph82%30.24 "Hg10 mi
3:00 AM48 °FClear.8 mph76%30.21 "Hg10 mi
2:00 AM50 °FClear.7 mph67%30.24 "Hg10 mi
1:00 AM46 °FClear.7 mph76%30.24 "Hg10 mi
12:00 AM50 °FClear.8 mph67%30.24 "Hg10 mi
11:30 PM
Tue, Jun 28
52 °FClear.9 mph62%30.24 "Hg10 mi
11:00 PM52 °FClear.10 mph62%30.24 "Hg10 mi
10:30 PM52 °FClear.9 mph62%30.24 "Hg10 mi
10:00 PM54 °FClear.12 mph54%30.24 "Hg10 mi
9:30 PM55 °FClear.12 mph51%30.21 "Hg10 mi
9:00 PM54 °FClear.10 mph58%30.24 "Hg10 mi
8:30 PM54 °FClear.10 mph58%30.24 "Hg10 mi
8:00 PM52 °FClear.10 mph62%30.21 "Hg10 mi
7:30 PM55 °FClear.12 mph55%30.21 "Hg10 mi
7:00 PM55 °FClear.9 mph55%30.21 "Hg10 mi
6:30 PM55 °FClear.6 mph55%30.18 "Hg10 mi
6:00 PM57 °FClear.7 mph55%30.18 "Hg10 mi
5:30 PM59 °FClear.6 mph51%30.15 "Hg10 mi
5:00 PM61 °FClear.7 mph42%30.15 "Hg10 mi
4:30 PM63 °FPassing clouds.10 mph42%30.12 "HgN/A
4:00 PM64 °FPassing clouds.10 mph37%30.12 "HgN/A
3:30 PM64 °FPassing clouds.13 mph37%30.12 "HgN/A
3:00 PM64 °FPassing clouds.14 mph37%30.12 "HgN/A
2:30 PM64 °FPassing clouds.17 mph34%30.09 "HgN/A
2:00 PM64 °FSunny.15 mph37%30.09 "Hg10 mi
1:30 PM63 °FSunny.16 mph37%30.09 "Hg10 mi
1:00 PM63 °FSunny.17 mph37%30.09 "Hg10 mi
12:30 PM61 °FSunny.17 mph39%30.12 "Hg10 mi
12:00 PM61 °FSunny.17 mph39%30.12 "Hg10 mi
11:00 AM59 °FPassing clouds.17 mph42%30.15 "HgN/A
10:30 AM57 °FPassing clouds.16 mph41%30.15 "HgN/A
10:00 AM55 °FPassing clouds.18 mph44%30.15 "HgN/A
9:30 AM54 °FPassing clouds.21 mph47%30.15 "HgN/A
9:00 AM52 °FPassing clouds.17 mph50%30.15 "HgN/A
8:30 AM52 °FPassing clouds.20 mph50%30.15 "HgN/A
8:00 AM50 °FPassing clouds.20 mph54%30.15 "HgN/A
Weather by CustomWeather, © 2016

See weather overviewHow to use our weather pages